Location: Friaudour
(46.0460°N, 1.2873°E)
Time: 08:46:54
(UTC+00:00)

Meteor 2-20 Rocket - Pass Details

Date: 14 July 2020
Orbit: 941 x 958 km, 82.5° (Epoch: 15 August)

Event Time Altitude Azimuth Distance (km) Brightness Sun altitude
Rises 00:19:41 0° 349° (N) 3,641 8.8 -22.2°
Reaches altitude 10° 00:22:12 10° 349° (NNW) 2,694 7.8 -22.1°
Maximum altitude 00:28:21 79° 264° (W) 980 4.4 -22.0°
Enters shadow 00:30:28 44° 186° (S) 1,307 4.7 -22.0°
